Time,TemperatureF,DewpointF,PressureIn,WindDirection,WindDirectionDegrees,WindSpeedMPH,WindSpeedGustMPH,Humidity,HourlyPrecipIn,Conditions,Clouds,dailyrainin,SolarRadiationWatts/m^2,SoftwareType,DateUTC
2013-05-14 00:01:00,44.4,41.4,29.98,WSW,246,0.0,0.0,89,-99.99,,,-99.99,0.0,meteohub,2013-05-14 04:01:00,
2013-05-14 00:02:00,44.2,41.2,29.98,WSW,246,0.0,0.0,89,-99.99,,,-99.99,0.0,meteohub,2013-05-14 04:02:00,
2013-05-14 00:04:00,44.2,41.2,29.98,WSW,246,0.0,0.0,89,-99.99,,,-99.99,0.0,meteohub,2013-05-14 04:04:00,
2013-05-14 00:09:00,44.2,41.2,29.98,WSW,246,0.0,0.0,89,-99.99,,,-99.99,0.0,meteohub,2013-05-14 04:09:00,
2013-05-14 00:14:00,44.2,41.5,29.98,WSW,246,0.0,0.0,90,-99.99,,,-99.99,0.0,meteohub,2013-05-14 04:14:00,
2013-05-14 00:19:00,44.1,41.5,29.98,WSW,246,0.0,0.0,91,-99.99,,,-99.99,0.0,meteohub,2013-05-14 04:19:00,
2013-05-14 00:24:00,43.9,41.4,29.99,WSW,246,0.0,0.0,91,-99.99,,,-99.99,0.0,meteohub,2013-05-14 04:24:00,
2013-05-14 00:29:00,43.9,41.4,29.98,WSW,246,0.0,0.0,91,-99.99,,,-99.99,0.0,meteohub,2013-05-14 04:29:00,
2013-05-14 00:34:00,43.7,41.2,29.99,WSW,246,0.0,0.0,91,-99.99,,,-99.99,0.0,meteohub,2013-05-14 04:34:00,
2013-05-14 00:39:00,43.5,41.0,29.99,WSW,246,0.0,0.0,91,-99.99,,,-99.99,0.0,meteohub,2013-05-14 04:39:00,
2013-05-14 00:44:00,43.5,41.4,29.98,WSW,246,0.0,0.0,92,-99.99,,,-99.99,0.0,meteohub,2013-05-14 04:44:00,
2013-05-14 00:49:00,43.5,41.7,29.98,WSW,246,1.0,0.0,93,-99.99,,,-99.99,0.0,meteohub,2013-05-14 04:49:00,
2013-05-14 00:54:00,43.9,42.3,29.97,WSW,246,2.0,2.0,94,-99.99,,,-99.99,0.0,meteohub,2013-05-14 04:54:00,
2013-05-14 00:59:00,44.4,42.3,29.97,West,260,1.0,2.0,92,-99.99,,,-99.99,0.0,meteohub,2013-05-14 04:59:00,
2013-05-14 01:04:00,45.0,42.3,29.97,West,260,2.0,5.0,90,-99.99,,,-99.99,0.0,meteohub,2013-05-14 05:04:00,
2013-05-14 01:09:00,45.1,41.2,29.97,West,259,1.0,5.0,86,-99.99,,,-99.99,0.0,meteohub,2013-05-14 05:09:00,
2013-05-14 01:14:00,45.5,41.5,29.97,West,261,2.0,6.0,86,-99.99,,,-99.99,0.0,meteohub,2013-05-14 05:14:00,
2013-05-14 01:19:00,45.7,41.2,29.97,West,263,4.0,6.0,84,-99.99,,,-99.99,0.0,meteohub,2013-05-14 05:19:00,
2013-05-14 01:24:00,45.7,40.5,29.97,WNW,283,3.0,6.0,82,-99.99,,,-99.99,0.0,meteohub,2013-05-14 05:24:00,
2013-05-14 01:29:00,46.0,39.9,29.98,West,266,3.0,4.0,79,-99.99,,,-99.99,0.0,meteohub,2013-05-14 05:29:00,
2013-05-14 01:34:00,46.0,39.2,29.97,West,260,4.0,6.0,77,-99.99,,,-99.99,0.0,meteohub,2013-05-14 05:34:00,
2013-05-14 01:39:00,46.4,39.2,29.97,West,271,3.0,6.0,76,-99.99,,,-99.99,0.0,meteohub,2013-05-14 05:39:00,
2013-05-14 01:44:00,46.8,38.8,29.97,West,265,4.0,6.0,74,-99.99,,,-99.99,0.0,meteohub,2013-05-14 05:44:00,
2013-05-14 01:49:00,46.8,38.3,29.98,West,261,4.0,6.0,72,-99.99,,,-99.99,0.0,meteohub,2013-05-14 05:49:00,
2013-05-14 01:54:00,46.8,38.5,29.98,West,261,4.0,6.0,73,-99.99,,,-99.99,0.0,meteohub,2013-05-14 05:54:00,
2013-05-14 01:59:00,46.8,38.3,29.99,West,262,1.0,7.0,72,-99.99,,,-99.99,0.0,meteohub,2013-05-14 05:59:00,
2013-05-14 02:04:00,46.8,37.9,29.99,West,265,3.0,7.0,71,-99.99,,,-99.99,0.0,meteohub,2013-05-14 06:04:00,
2013-05-14 02:09:00,46.8,37.9,29.99,West,265,3.0,7.0,71,-99.99,,,-99.99,0.0,meteohub,2013-05-14 06:09:00,
2013-05-14 02:14:00,46.6,38.1,29.98,West,265,3.0,6.0,72,-99.99,,,-99.99,0.0,meteohub,2013-05-14 06:14:00,
2013-05-14 02:19:00,46.6,37.8,29.97,WSW,254,4.0,6.0,71,-99.99,,,-99.99,0.0,meteohub,2013-05-14 06:19:00,
2013-05-14 02:24:00,46.8,37.6,29.98,WSW,257,3.0,6.0,70,-99.99,,,-99.99,0.0,meteohub,2013-05-14 06:24:00,
2013-05-14 02:29:00,46.6,38.1,29.97,West,261,3.0,7.0,72,-99.99,,,-99.99,0.0,meteohub,2013-05-14 06:29:00,
2013-05-14 02:34:00,46.6,38.1,29.98,West,262,3.0,7.0,72,-99.99,,,-99.99,0.0,meteohub,2013-05-14 06:34:00,
2013-05-14 02:39:00,46.6,37.8,29.98,West,261,2.0,6.0,71,-99.99,,,-99.99,0.0,meteohub,2013-05-14 06:39:00,
2013-05-14 02:44:00,46.4,37.9,29.98,West,264,3.0,6.0,72,-99.99,,,-99.99,0.0,meteohub,2013-05-14 06:44:00,
2013-05-14 02:49:00,46.2,38.1,29.99,West,262,2.0,6.0,73,-99.99,,,-99.99,0.0,meteohub,2013-05-14 06:49:00,
2013-05-14 02:54:00,46.2,38.1,29.99,WNW,282,1.0,6.0,73,-99.99,,,-99.99,0.0,meteohub,2013-05-14 06:54:00,
2013-05-14 02:59:00,46.0,37.6,29.99,West,265,2.0,4.0,72,-99.99,,,-99.99,0.0,meteohub,2013-05-14 06:59:00,
2013-05-14 03:04:00,46.0,37.9,29.99,West,267,1.0,4.0,73,-99.99,,,-99.99,0.0,meteohub,2013-05-14 07:04:00,
2013-05-14 03:09:00,46.0,38.5,29.99,West,268,1.0,3.0,75,-99.99,,,-99.99,0.0,meteohub,2013-05-14 07:09:00,
2013-05-14 03:14:00,46.0,38.8,29.99,West,268,0.0,3.0,76,-99.99,,,-99.99,0.0,meteohub,2013-05-14 07:14:00,
2013-05-14 03:19:00,46.0,38.8,29.99,West,268,0.0,2.0,76,-99.99,,,-99.99,0.0,meteohub,2013-05-14 07:19:00,
2013-05-14 03:24:00,45.9,38.3,29.99,West,269,0.0,2.0,75,-99.99,,,-99.99,0.0,meteohub,2013-05-14 07:24:00,
2013-05-14 03:29:00,45.7,38.3,29.98,West,269,0.0,1.0,75,-99.99,,,-99.99,0.0,meteohub,2013-05-14 07:29:00,
2013-05-14 03:35:00,45.3,37.6,29.98,West,269,0.0,1.0,74,-99.99,,,-99.99,0.0,meteohub,2013-05-14 07:35:00,
2013-05-14 03:40:00,45.1,37.9,29.98,West,272,2.0,2.0,76,-99.99,,,-99.99,0.0,meteohub,2013-05-14 07:40:00,
2013-05-14 03:45:00,45.7,37.6,29.98,West,263,2.0,2.0,73,-99.99,,,-99.99,0.0,meteohub,2013-05-14 07:45:00,
2013-05-14 03:50:00,45.9,37.4,29.98,West,260,1.0,4.0,72,-99.99,,,-99.99,0.0,meteohub,2013-05-14 07:50:00,
2013-05-14 03:55:00,45.9,37.0,29.98,West,262,1.0,4.0,71,-99.99,,,-99.99,0.0,meteohub,2013-05-14 07:55:00,
2013-05-14 04:00:00,45.9,37.8,29.99,West,260,0.0,4.0,73,-99.99,,,-99.99,0.0,meteohub,2013-05-14 08:00:00,
2013-05-14 04:05:00,45.7,37.9,29.98,West,260,0.0,4.0,74,-99.99,,,-99.99,0.0,meteohub,2013-05-14 08:05:00,
2013-05-14 04:10:00,45.5,37.4,29.98,West,260,0.0,4.0,73,-99.99,,,-99.99,0.0,meteohub,2013-05-14 08:10:00,
2013-05-14 04:15:00,45.3,36.9,29.99,West,260,0.0,3.0,72,-99.99,,,-99.99,0.0,meteohub,2013-05-14 08:15:00,
2013-05-14 04:20:00,45.1,37.0,29.99,West,271,0.0,1.0,73,-99.99,,,-99.99,0.0,meteohub,2013-05-14 08:20:00,
2013-05-14 04:25:00,45.0,37.2,29.99,West,271,0.0,2.0,74,-99.99,,,-99.99,0.0,meteohub,2013-05-14 08:25:00,
2013-05-14 04:30:00,44.8,36.7,29.99,West,271,0.0,2.0,73,-99.99,,,-99.99,0.0,meteohub,2013-05-14 08:30:00,
2013-05-14 04:35:00,44.4,36.7,29.99,West,271,0.0,2.0,74,-99.99,,,-99.99,0.0,meteohub,2013-05-14 08:35:00,
2013-05-14 04:40:00,44.4,36.7,29.99,West,272,0.0,1.0,74,-99.99,,,-99.99,0.0,meteohub,2013-05-14 08:40:00,
2013-05-14 04:45:00,44.4,37.6,29.98,West,273,0.0,1.0,77,-99.99,,,-99.99,0.0,meteohub,2013-05-14 08:45:00,
2013-05-14 04:50:00,44.8,38.3,29.98,West,273,1.0,1.0,78,-99.99,,,-99.99,0.0,meteohub,2013-05-14 08:50:00,
2013-05-14 04:55:00,45.0,38.1,29.98,West,273,0.0,2.0,77,-99.99,,,-99.99,0.0,meteohub,2013-05-14 08:55:00,
2013-05-14 05:00:00,45.0,38.1,29.98,West,273,1.0,2.0,77,-99.99,,,-99.99,0.0,meteohub,2013-05-14 09:00:00,
2013-05-14 05:05:00,45.1,38.3,29.98,West,273,1.0,2.0,77,-99.99,,,-99.99,0.0,meteohub,2013-05-14 09:05:00,
2013-05-14 05:10:00,45.1,37.8,29.98,WSW,254,2.0,2.0,75,-99.99,,,-99.99,0.0,meteohub,2013-05-14 09:10:00,
2013-05-14 05:15:00,45.1,37.4,29.99,West,260,2.0,4.0,74,-99.99,,,-99.99,0.0,meteohub,2013-05-14 09:15:00,
2013-05-14 05:20:00,45.0,37.6,29.99,West,265,1.0,4.0,75,-99.99,,,-99.99,0.0,meteohub,2013-05-14 09:20:00,
2013-05-14 05:25:00,44.8,37.4,29.99,West,265,1.0,4.0,75,-99.99,,,-99.99,7.0,meteohub,2013-05-14 09:25:00,
2013-05-14 05:30:00,44.6,37.6,29.99,West,265,0.0,4.0,76,-99.99,,,-99.99,9.0,meteohub,2013-05-14 09:30:00,
2013-05-14 05:35:00,44.8,37.9,29.99,West,265,1.0,4.0,77,-99.99,,,-99.99,11.0,meteohub,2013-05-14 09:35:00,
2013-05-14 05:40:00,44.8,38.3,29.99,West,267,1.0,3.0,78,-99.99,,,-99.99,14.0,meteohub,2013-05-14 09:40:00,
2013-05-14 05:45:00,44.6,37.8,29.99,WNW,286,0.0,3.0,77,-99.99,,,-99.99,23.0,meteohub,2013-05-14 09:45:00,
2013-05-14 05:50:00,44.4,37.0,29.99,WNW,301,0.0,6.0,75,-99.99,,,-99.99,23.0,meteohub,2013-05-14 09:50:00,
2013-05-14 05:55:00,44.4,36.7,29.99,West,279,0.0,6.0,74,-99.99,,,-99.99,30.0,meteohub,2013-05-14 09:55:00,
2013-05-14 06:00:00,44.4,37.9,29.99,West,279,0.0,6.0,78,-99.99,,,-99.99,28.0,meteohub,2013-05-14 10:00:00,
2013-05-14 06:05:00,44.8,37.8,29.99,West,279,1.0,4.0,76,-99.99,,,-99.99,32.0,meteohub,2013-05-14 10:05:00,
2013-05-14 06:10:00,45.0,38.1,29.99,West,279,1.0,2.0,77,-99.99,,,-99.99,33.0,meteohub,2013-05-14 10:10:00,
2013-05-14 06:15:00,45.0,37.9,29.99,West,279,1.0,2.0,76,-99.99,,,-99.99,47.0,meteohub,2013-05-14 10:15:00,
2013-05-14 06:20:00,45.1,37.8,29.99,West,267,3.0,3.0,75,-99.99,,,-99.99,33.0,meteohub,2013-05-14 10:20:00,
2013-05-14 06:25:00,45.1,37.8,29.99,West,267,1.0,4.0,75,-99.99,,,-99.99,54.0,meteohub,2013-05-14 10:25:00,
2013-05-14 06:30:00,45.1,37.4,29.99,West,267,1.0,4.0,74,-99.99,,,-99.99,54.0,meteohub,2013-05-14 10:30:00,
2013-05-14 06:35:00,45.1,37.9,29.99,West,267,1.0,4.0,76,-99.99,,,-99.99,47.0,meteohub,2013-05-14 10:35:00,
2013-05-14 06:40:00,45.0,38.1,29.99,West,267,1.0,3.0,77,-99.99,,,-99.99,44.0,meteohub,2013-05-14 10:40:00,
2013-05-14 06:45:00,45.0,37.6,29.98,West,268,1.0,2.0,75,-99.99,,,-99.99,53.0,meteohub,2013-05-14 10:45:00,
2013-05-14 06:50:00,45.0,38.1,29.98,WNW,297,0.0,3.0,77,-99.99,,,-99.99,77.0,meteohub,2013-05-14 10:50:00,
2013-05-14 06:55:00,45.0,38.1,29.99,WNW,297,0.0,3.0,77,-99.99,,,-99.99,88.0,meteohub,2013-05-14 10:55:00,
2013-05-14 07:00:00,45.1,38.7,29.98,WNW,297,1.0,3.0,78,-99.99,,,-99.99,100.0,meteohub,2013-05-14 11:00:00,
2013-05-14 07:05:00,45.3,38.1,29.98,WNW,284,1.0,3.0,76,-99.99,,,-99.99,123.0,meteohub,2013-05-14 11:05:00,
2013-05-14 07:10:00,45.5,37.8,29.99,West,281,2.0,2.0,74,-99.99,,,-99.99,100.0,meteohub,2013-05-14 11:10:00,
2013-05-14 07:15:00,45.7,37.2,29.99,West,264,2.0,4.0,72,-99.99,,,-99.99,123.0,meteohub,2013-05-14 11:15:00,
2013-05-14 07:21:00,45.7,37.6,29.99,West,275,1.0,4.0,73,-99.99,,,-99.99,102.0,meteohub,2013-05-14 11:21:00,
2013-05-14 07:26:00,45.9,38.3,29.99,West,277,1.0,4.0,75,-99.99,,,-99.99,146.0,meteohub,2013-05-14 11:26:00,
2013-05-14 07:31:00,45.9,37.8,29.99,West,265,1.0,4.0,73,-99.99,,,-99.99,165.0,meteohub,2013-05-14 11:31:00,
2013-05-14 07:36:00,46.0,37.6,29.99,West,265,1.0,4.0,72,-99.99,,,-99.99,148.0,meteohub,2013-05-14 11:36:00,
2013-05-14 07:41:00,46.0,38.3,29.99,West,265,1.0,4.0,74,-99.99,,,-99.99,295.0,meteohub,2013-05-14 11:41:00,
2013-05-14 07:46:00,46.6,38.7,29.99,West,269,1.0,3.0,74,-99.99,,,-99.99,315.0,meteohub,2013-05-14 11:46:00,
2013-05-14 07:51:00,46.8,38.8,29.99,West,274,2.0,3.0,74,-99.99,,,-99.99,221.0,meteohub,2013-05-14 11:51:00,
2013-05-14 07:56:00,46.8,38.3,29.99,West,275,1.0,4.0,72,-99.99,,,-99.99,185.0,meteohub,2013-05-14 11:56:00,
2013-05-14 08:01:00,46.8,37.6,29.99,West,265,2.0,4.0,70,-99.99,,,-99.99,251.0,meteohub,2013-05-14 12:01:00,
2013-05-14 08:06:00,46.9,36.5,29.99,WSW,255,4.0,6.0,67,-99.99,,,-99.99,336.0,meteohub,2013-05-14 12:06:00,
2013-05-14 08:11:00,47.1,37.0,29.99,West,269,3.0,7.0,68,-99.99,,,-99.99,236.0,meteohub,2013-05-14 12:11:00,
2013-05-14 08:16:00,47.3,37.6,29.99,WNW,283,1.0,7.0,69,-99.99,,,-99.99,207.0,meteohub,2013-05-14 12:16:00,
2013-05-14 08:21:00,47.3,36.9,29.99,WSW,257,4.0,7.0,67,-99.99,,,-99.99,155.0,meteohub,2013-05-14 12:21:00,
2013-05-14 08:26:00,47.1,36.7,29.99,West,263,4.0,7.0,67,-99.99,,,-99.99,167.0,meteohub,2013-05-14 12:26:00,
2013-05-14 08:31:00,47.1,37.0,29.99,West,262,6.0,7.0,68,-99.99,,,-99.99,176.0,meteohub,2013-05-14 12:31:00,
2013-05-14 08:37:00,47.5,36.3,29.98,West,261,4.0,9.0,65,-99.99,,,-99.99,241.0,meteohub,2013-05-14 12:37:00,
2013-05-14 08:42:00,47.7,36.1,29.98,West,259,4.0,9.0,64,-99.99,,,-99.99,155.0,meteohub,2013-05-14 12:42:00,
2013-05-14 08:47:00,47.5,35.6,29.98,West,270,3.0,7.0,63,-99.99,,,-99.99,158.0,meteohub,2013-05-14 12:47:00,
2013-05-14 08:52:00,47.1,35.2,29.98,West,265,5.0,7.0,63,-99.99,,,-99.99,374.0,meteohub,2013-05-14 12:52:00,
2013-05-14 08:57:00,47.5,35.6,29.98,West,267,3.0,6.0,63,-99.99,,,-99.99,192.0,meteohub,2013-05-14 12:57:00,
2013-05-14 09:02:00,47.8,36.3,29.98,West,263,3.0,6.0,64,-99.99,,,-99.99,105.0,meteohub,2013-05-14 13:02:00,
2013-05-14 09:07:00,48.0,34.9,29.97,West,265,5.0,7.0,60,-99.99,,,-99.99,221.0,meteohub,2013-05-14 13:07:00,
2013-05-14 09:12:00,48.4,35.6,29.98,WNW,286,2.0,7.0,61,-99.99,,,-99.99,148.0,meteohub,2013-05-14 13:12:00,
2013-05-14 09:17:00,48.4,36.0,29.98,West,259,5.0,7.0,62,-99.99,,,-99.99,146.0,meteohub,2013-05-14 13:17:00,
2013-05-14 09:22:00,48.4,35.6,29.97,WSW,249,5.0,7.0,61,-99.99,,,-99.99,204.0,meteohub,2013-05-14 13:22:00,
2013-05-14 09:27:00,48.6,37.4,29.97,West,264,4.0,9.0,65,-99.99,,,-99.99,251.0,meteohub,2013-05-14 13:27:00,
2013-05-14 09:32:00,48.6,36.5,29.97,West,261,5.0,9.0,63,-99.99,,,-99.99,176.0,meteohub,2013-05-14 13:32:00,
2013-05-14 09:37:00,48.7,37.0,29.97,West,259,4.0,9.0,64,-99.99,,,-99.99,118.0,meteohub,2013-05-14 13:37:00,
2013-05-14 09:42:00,49.1,35.8,29.96,West,271,3.0,9.0,60,-99.99,,,-99.99,489.0,meteohub,2013-05-14 13:42:00,
2013-05-14 09:47:00,49.5,35.2,29.96,West,267,5.0,9.0,58,-99.99,,,-99.99,482.0,meteohub,2013-05-14 13:47:00,
2013-05-14 09:52:00,49.6,36.7,29.96,WNW,290,2.0,7.0,61,-99.99,,,-99.99,199.0,meteohub,2013-05-14 13:52:00,
2013-05-14 09:57:00,50.2,36.3,29.96,West,265,3.0,7.0,59,-99.99,,,-99.99,320.0,meteohub,2013-05-14 13:57:00,
2013-05-14 10:02:00,50.5,37.2,29.96,WSW,257,5.0,7.0,60,-99.99,,,-99.99,417.0,meteohub,2013-05-14 14:02:00,
2013-05-14 10:07:00,50.9,36.7,29.96,West,266,3.0,7.0,58,-99.99,,,-99.99,332.0,meteohub,2013-05-14 14:07:00,
2013-05-14 10:12:00,51.3,37.4,29.96,West,267,2.0,7.0,59,-99.99,,,-99.99,555.0,meteohub,2013-05-14 14:12:00,
2013-05-14 10:17:00,51.4,37.2,29.96,WSW,258,3.0,7.0,58,-99.99,,,-99.99,367.0,meteohub,2013-05-14 14:17:00,
2013-05-14 10:22:00,51.3,36.5,29.96,West,277,3.0,7.0,57,-99.99,,,-99.99,459.0,meteohub,2013-05-14 14:22:00,
2013-05-14 10:27:00,51.1,36.9,29.96,West,261,1.0,7.0,58,-99.99,,,-99.99,357.0,meteohub,2013-05-14 14:27:00,
2013-05-14 10:32:00,51.1,36.0,29.96,West,265,3.0,7.0,56,-99.99,,,-99.99,366.0,meteohub,2013-05-14 14:32:00,
2013-05-14 10:37:00,51.1,35.4,29.95,West,263,3.0,6.0,55,-99.99,,,-99.99,388.0,meteohub,2013-05-14 14:37:00,
2013-05-14 10:42:00,51.4,37.2,29.95,West,265,3.0,6.0,58,-99.99,,,-99.99,448.0,meteohub,2013-05-14 14:42:00,
2013-05-14 10:47:00,52.0,38.1,29.95,West,270,1.0,6.0,59,-99.99,,,-99.99,513.0,meteohub,2013-05-14 14:47:00,
2013-05-14 10:52:00,52.5,37.8,29.95,West,270,1.0,4.0,57,-99.99,,,-99.99,455.0,meteohub,2013-05-14 14:52:00,
2013-05-14 10:57:00,52.5,36.0,29.95,WNW,290,1.0,3.0,53,-99.99,,,-99.99,401.0,meteohub,2013-05-14 14:57:00,
2013-05-14 11:02:00,52.7,37.4,29.95,WNW,290,0.0,4.0,56,-99.99,,,-99.99,404.0,meteohub,2013-05-14 15:02:00,
2013-05-14 11:07:00,52.7,37.0,29.95,WNW,290,0.0,4.0,55,-99.99,,,-99.99,510.0,meteohub,2013-05-14 15:07:00,
2013-05-14 11:12:00,53.2,36.5,29.95,WNW,297,0.0,4.0,53,-99.99,,,-99.99,988.0,meteohub,2013-05-14 15:12:00,
2013-05-14 11:17:00,54.1,36.0,29.95,WNW,300,2.0,2.0,50,-99.99,,,-99.99,889.0,meteohub,2013-05-14 15:17:00,
2013-05-14 11:22:00,54.3,35.6,29.95,West,263,0.0,3.0,49,-99.99,,,-99.99,737.0,meteohub,2013-05-14 15:22:00,
2013-05-14 11:27:00,54.3,35.1,29.95,West,269,2.0,3.0,48,-99.99,,,-99.99,737.0,meteohub,2013-05-14 15:27:00,
2013-05-14 11:32:00,53.8,36.1,29.94,WSW,257,0.0,4.0,51,-99.99,,,-99.99,654.0,meteohub,2013-05-14 15:32:00,
2013-05-14 11:37:00,54.1,36.0,29.94,West,268,3.0,4.0,50,-99.99,,,-99.99,1044.0,meteohub,2013-05-14 15:37:00,
2013-05-14 11:42:00,54.7,34.3,29.94,West,274,2.0,5.0,46,-99.99,,,-99.99,984.0,meteohub,2013-05-14 15:42:00,
2013-05-14 11:47:00,54.7,34.3,29.94,WSW,257,2.0,5.0,46,-99.99,,,-99.99,860.0,meteohub,2013-05-14 15:47:00,
2013-05-14 11:52:00,54.7,35.4,29.94,West,278,2.0,5.0,48,-99.99,,,-99.99,863.0,meteohub,2013-05-14 15:52:00,
2013-05-14 11:57:00,55.2,36.9,29.94,WNW,286,0.0,4.0,50,-99.99,,,-99.99,967.0,meteohub,2013-05-14 15:57:00,
2013-05-14 12:02:00,55.6,35.1,29.94,West,265,2.0,4.0,46,-99.99,,,-99.99,872.0,meteohub,2013-05-14 16:02:00,
2013-05-14 12:07:00,55.2,34.2,29.94,West,264,0.0,4.0,45,-99.99,,,-99.99,946.0,meteohub,2013-05-14 16:07:00,
2013-05-14 12:12:00,55.2,35.4,29.94,West,267,1.0,4.0,47,-99.99,,,-99.99,969.0,meteohub,2013-05-14 16:12:00,
2013-05-14 12:17:00,55.0,35.2,29.94,West,269,0.0,3.0,47,-99.99,,,-99.99,441.0,meteohub,2013-05-14 16:17:00,
2013-05-14 12:22:00,55.6,35.1,29.94,West,265,3.0,3.0,46,-99.99,,,-99.99,441.0,meteohub,2013-05-14 16:22:00,
2013-05-14 12:27:00,55.8,34.7,29.94,SW,232,1.0,5.0,45,-99.99,,,-99.99,958.0,meteohub,2013-05-14 16:27:00,
2013-05-14 12:32:00,56.3,34.7,29.94,West,266,1.0,5.0,44,-99.99,,,-99.99,958.0,meteohub,2013-05-14 16:32:00,
2013-05-14 12:37:00,56.1,34.0,29.94,West,270,2.0,5.0,43,-99.99,,,-99.99,969.0,meteohub,2013-05-14 16:37:00,
2013-05-14 12:42:00,55.0,36.1,29.94,West,267,3.0,3.0,49,-99.99,,,-99.99,420.0,meteohub,2013-05-14 16:42:00,
2013-05-14 12:47:00,55.6,34.5,29.94,WSW,256,3.0,4.0,45,-99.99,,,-99.99,434.0,meteohub,2013-05-14 16:47:00,
2013-05-14 12:52:00,55.8,34.7,29.94,West,262,3.0,5.0,45,-99.99,,,-99.99,538.0,meteohub,2013-05-14 16:52:00,
2013-05-14 12:57:00,56.3,35.8,29.94,West,278,2.0,6.0,46,-99.99,,,-99.99,468.0,meteohub,2013-05-14 16:57:00,
2013-05-14 13:02:00,56.7,37.8,29.94,West,260,2.0,6.0,49,-99.99,,,-99.99,925.0,meteohub,2013-05-14 17:02:00,
2013-05-14 13:07:00,56.7,37.2,29.94,WSW,254,1.0,6.0,48,-99.99,,,-99.99,561.0,meteohub,2013-05-14 17:07:00,
2013-05-14 13:12:00,56.5,37.0,29.94,SW,226,1.0,5.0,48,-99.99,,,-99.99,515.0,meteohub,2013-05-14 17:12:00,
2013-05-14 13:17:00,56.1,36.1,29.94,SW,219,2.0,4.0,47,-99.99,,,-99.99,345.0,meteohub,2013-05-14 17:17:00,
2013-05-14 13:22:00,56.5,36.0,29.94,SW,232,2.0,4.0,46,-99.99,,,-99.99,446.0,meteohub,2013-05-14 17:22:00,
2013-05-14 13:27:00,56.1,38.7,29.94,ESE,115,3.0,4.0,52,-99.99,,,-99.99,464.0,meteohub,2013-05-14 17:27:00,
2013-05-14 13:32:00,55.9,37.0,29.94,East,91,7.0,7.0,49,-99.99,,,-99.99,397.0,meteohub,2013-05-14 17:32:00,
2013-05-14 13:37:00,55.6,36.7,29.94,SE,133,1.0,7.0,49,-99.99,,,-99.99,306.0,meteohub,2013-05-14 17:37:00,
2013-05-14 13:42:00,55.2,36.0,29.94,South,173,1.0,7.0,48,-99.99,,,-99.99,271.0,meteohub,2013-05-14 17:42:00,
2013-05-14 13:47:00,55.0,36.7,29.94,ENE,77,0.0,7.0,50,-99.99,,,-99.99,258.0,meteohub,2013-05-14 17:47:00,
2013-05-14 13:52:00,54.9,37.6,29.94,SW,224,1.0,5.0,52,-99.99,,,-99.99,264.0,meteohub,2013-05-14 17:52:00,
2013-05-14 13:57:00,54.9,36.1,29.94,East,101,0.0,5.0,49,-99.99,,,-99.99,271.0,meteohub,2013-05-14 17:57:00,
2013-05-14 14:02:00,54.9,37.6,29.94,SSW,205,1.0,3.0,52,-99.99,,,-99.99,271.0,meteohub,2013-05-14 18:02:00,
2013-05-14 14:07:00,54.9,36.5,29.93,SSW,205,0.0,3.0,50,-99.99,,,-99.99,229.0,meteohub,2013-05-14 18:07:00,
2013-05-14 14:12:00,54.7,36.9,29.93,South,185,0.0,3.0,51,-99.99,,,-99.99,216.0,meteohub,2013-05-14 18:12:00,
2013-05-14 14:17:00,54.7,38.8,29.93,SSW,192,0.0,2.0,55,-99.99,,,-99.99,227.0,meteohub,2013-05-14 18:17:00,
2013-05-14 14:22:00,54.7,38.8,29.93,SSW,192,0.0,2.0,55,-99.99,,,-99.99,211.0,meteohub,2013-05-14 18:22:00,
2013-05-14 14:27:00,54.5,37.8,29.93,SSW,192,0.0,2.0,53,-99.99,,,-99.99,190.0,meteohub,2013-05-14 18:27:00,
2013-05-14 14:32:00,54.1,36.9,29.93,SSW,197,1.0,2.0,52,-99.99,,,-99.99,199.0,meteohub,2013-05-14 18:32:00,
2013-05-14 14:37:00,54.0,38.1,29.92,SSW,197,0.0,2.0,55,-99.99,,,-99.99,227.0,meteohub,2013-05-14 18:37:00,
2013-05-14 14:42:00,54.1,38.8,29.92,SW,232,0.0,2.0,56,-99.99,,,-99.99,244.0,meteohub,2013-05-14 18:42:00,
2013-05-14 14:47:00,54.1,36.3,29.92,SW,228,0.0,2.0,51,-99.99,,,-99.99,202.0,meteohub,2013-05-14 18:47:00,
2013-05-14 14:52:00,54.1,36.9,29.92,SW,229,0.0,3.0,52,-99.99,,,-99.99,179.0,meteohub,2013-05-14 18:52:00,
2013-05-14 14:57:00,54.1,38.3,29.92,SW,229,0.0,3.0,55,-99.99,,,-99.99,169.0,meteohub,2013-05-14 18:57:00,
2013-05-14 15:02:00,54.0,36.7,29.92,SW,229,0.0,3.0,52,-99.99,,,-99.99,171.0,meteohub,2013-05-14 19:02:00,
2013-05-14 15:07:00,54.0,35.2,29.92,SE,143,0.0,2.0,49,-99.99,,,-99.99,148.0,meteohub,2013-05-14 19:07:00,
2013-05-14 15:12:00,53.8,35.6,29.92,SE,143,0.0,2.0,50,-99.99,,,-99.99,113.0,meteohub,2013-05-14 19:12:00,
2013-05-14 15:17:00,53.8,35.6,29.92,SE,143,0.0,2.0,50,-99.99,,,-99.99,79.0,meteohub,2013-05-14 19:17:00,
2013-05-14 15:22:00,53.8,36.1,29.92,SE,143,0.0,2.0,51,-99.99,,,-99.99,67.0,meteohub,2013-05-14 19:22:00,
2013-05-14 15:27:00,53.6,36.3,29.92,SE,143,0.0,1.0,52,-99.99,,,-99.99,54.0,meteohub,2013-05-14 19:27:00,
2013-05-14 15:32:00,53.2,36.1,29.92,SE,143,0.0,1.0,52,-99.99,,,-99.99,51.0,meteohub,2013-05-14 19:32:00,
2013-05-14 15:37:00,53.2,37.0,29.92,SE,143,0.0,1.0,54,-99.99,,,-99.99,49.0,meteohub,2013-05-14 19:37:00,
2013-05-14 15:42:00,53.2,37.9,29.92,SE,143,0.0,1.0,56,-99.99,,,-99.99,42.0,meteohub,2013-05-14 19:42:00,
2013-05-14 15:47:00,53.1,39.2,29.92,SE,143,0.0,0.0,59,-99.99,,,-99.99,42.0,meteohub,2013-05-14 19:47:00,
2013-05-14 15:52:00,52.9,39.7,29.92,SE,143,0.0,0.0,61,-99.99,,,-99.99,39.0,meteohub,2013-05-14 19:52:00,
2013-05-14 15:57:00,52.5,38.7,29.92,SE,143,0.0,0.0,59,-99.99,,,-99.99,37.0,meteohub,2013-05-14 19:57:00,
2013-05-14 16:02:00,52.3,37.0,29.92,SE,143,0.0,0.0,56,-99.99,,,-99.99,33.0,meteohub,2013-05-14 20:02:00,
2013-05-14 16:07:00,52.3,39.7,29.93,SE,143,0.0,0.0,62,-99.99,,,-99.99,32.0,meteohub,2013-05-14 20:07:00,
2013-05-14 16:12:00,52.3,40.5,29.92,SE,143,1.0,0.0,64,-99.99,,,-99.99,32.0,meteohub,2013-05-14 20:12:00,
2013-05-14 16:17:00,52.0,38.5,29.92,SE,143,0.0,1.0,60,-99.99,,,-99.99,33.0,meteohub,2013-05-14 20:17:00,
2013-05-14 16:22:00,51.8,39.2,29.92,SE,143,0.0,1.0,62,-99.99,,,-99.99,33.0,meteohub,2013-05-14 20:22:00,
2013-05-14 16:27:00,51.6,39.0,29.92,SE,143,0.0,1.0,62,-99.99,,,-99.99,32.0,meteohub,2013-05-14 20:27:00,
2013-05-14 16:32:00,51.6,39.0,29.92,SE,143,0.0,1.0,62,-99.99,,,-99.99,28.0,meteohub,2013-05-14 20:32:00,
2013-05-14 16:37:00,51.4,39.7,29.93,ENE,62,0.0,1.0,64,-99.99,,,-99.99,26.0,meteohub,2013-05-14 20:37:00,
2013-05-14 16:42:00,51.3,39.6,29.93,ENE,62,0.0,3.0,64,-99.99,,,-99.99,28.0,meteohub,2013-05-14 20:42:00,
2013-05-14 16:47:00,51.1,38.5,29.93,ENE,62,0.0,3.0,62,-99.99,,,-99.99,30.0,meteohub,2013-05-14 20:47:00,
2013-05-14 16:52:00,50.7,39.0,29.93,ENE,62,0.0,1.0,64,-99.99,,,-99.99,33.0,meteohub,2013-05-14 20:52:00,
2013-05-14 16:57:00,50.7,39.4,29.92,ENE,62,0.0,1.0,65,-99.99,,,-99.99,35.0,meteohub,2013-05-14 20:57:00,
2013-05-14 17:02:00,50.7,40.5,29.92,ENE,62,0.0,1.0,68,-99.99,,,-99.99,35.0,meteohub,2013-05-14 21:02:00,
2013-05-14 17:07:00,50.5,40.8,29.92,ENE,62,0.0,0.0,69,-99.99,,,-99.99,40.0,meteohub,2013-05-14 21:07:00,
2013-05-14 17:12:00,50.5,41.2,29.92,ENE,62,0.0,0.0,70,-99.99,,,-99.99,49.0,meteohub,2013-05-14 21:12:00,
2013-05-14 17:17:00,50.5,41.5,29.92,ENE,62,0.0,0.0,71,-99.99,,,-99.99,53.0,meteohub,2013-05-14 21:17:00,
2013-05-14 17:22:00,50.5,41.9,29.92,ENE,62,0.0,0.0,72,-99.99,,,-99.99,42.0,meteohub,2013-05-14 21:22:00,
2013-05-14 17:27:00,50.5,41.9,29.92,ENE,62,0.0,0.0,72,-99.99,,,-99.99,40.0,meteohub,2013-05-14 21:27:00,
2013-05-14 17:32:00,50.5,42.3,29.92,ENE,62,0.0,0.0,73,-99.99,,,-99.99,46.0,meteohub,2013-05-14 21:32:00,
2013-05-14 17:37:00,50.5,43.0,29.92,ENE,62,0.0,0.0,75,-99.99,,,-99.99,56.0,meteohub,2013-05-14 21:37:00,
2013-05-14 17:42:00,50.4,42.1,29.92,ENE,62,0.0,1.0,73,-99.99,,,-99.99,51.0,meteohub,2013-05-14 21:42:00,
2013-05-14 17:47:00,50.4,40.6,29.92,West,280,1.0,1.0,69,-99.99,,,-99.99,42.0,meteohub,2013-05-14 21:47:00,
2013-05-14 17:52:00,50.5,39.9,29.91,West,262,2.0,3.0,67,-99.99,,,-99.99,46.0,meteohub,2013-05-14 21:52:00,
2013-05-14 17:57:00,51.1,39.4,29.91,West,270,3.0,5.0,64,-99.99,,,-99.99,44.0,meteohub,2013-05-14 21:57:00,
2013-05-14 18:02:00,51.4,38.8,29.91,West,272,3.0,5.0,62,-99.99,,,-99.99,35.0,meteohub,2013-05-14 22:02:00,
2013-05-14 18:07:00,51.4,38.5,29.91,West,263,1.0,6.0,61,-99.99,,,-99.99,39.0,meteohub,2013-05-14 22:07:00,
2013-05-14 18:12:00,51.6,39.4,29.91,West,264,4.0,6.0,63,-99.99,,,-99.99,53.0,meteohub,2013-05-14 22:12:00,
2013-05-14 18:17:00,51.6,38.1,29.91,West,259,4.0,8.0,60,-99.99,,,-99.99,40.0,meteohub,2013-05-14 22:17:00,
2013-05-14 18:22:00,51.6,37.8,29.92,WSW,251,3.0,8.0,59,-99.99,,,-99.99,35.0,meteohub,2013-05-14 22:22:00,
2013-05-14 18:27:00,51.6,36.9,29.92,West,263,3.0,8.0,57,-99.99,,,-99.99,33.0,meteohub,2013-05-14 22:27:00,
2013-05-14 18:32:00,51.6,37.4,29.92,West,269,2.0,5.0,58,-99.99,,,-99.99,32.0,meteohub,2013-05-14 22:32:00,
2013-05-14 18:37:00,51.4,37.6,29.92,West,263,3.0,5.0,59,-99.99,,,-99.99,30.0,meteohub,2013-05-14 22:37:00,
2013-05-14 18:42:00,51.4,37.6,29.92,West,263,2.0,5.0,59,-99.99,,,-99.99,35.0,meteohub,2013-05-14 22:42:00,
2013-05-14 18:47:00,51.4,38.5,29.92,West,268,0.0,4.0,61,-99.99,,,-99.99,33.0,meteohub,2013-05-14 22:47:00,
2013-05-14 18:52:00,51.4,37.9,29.93,West,269,2.0,4.0,60,-99.99,,,-99.99,26.0,meteohub,2013-05-14 22:52:00,
2013-05-14 18:57:00,51.4,37.6,29.93,West,269,1.0,3.0,59,-99.99,,,-99.99,21.0,meteohub,2013-05-14 22:57:00,
2013-05-14 19:02:00,51.4,37.6,29.94,West,269,0.0,3.0,59,-99.99,,,-99.99,16.0,meteohub,2013-05-14 23:02:00,
2013-05-14 19:07:00,51.4,37.6,29.94,West,269,0.0,2.0,59,-99.99,,,-99.99,14.0,meteohub,2013-05-14 23:07:00,
2013-05-14 19:12:00,51.3,37.4,29.94,West,269,1.0,2.0,59,-99.99,,,-99.99,12.0,meteohub,2013-05-14 23:12:00,
2013-05-14 19:17:00,51.3,37.4,29.94,West,269,0.0,2.0,59,-99.99,,,-99.99,11.0,meteohub,2013-05-14 23:17:00,
2013-05-14 19:22:00,51.3,40.3,29.94,West,269,1.0,2.0,66,-99.99,,,-99.99,11.0,meteohub,2013-05-14 23:22:00,
2013-05-14 19:27:00,50.5,41.2,29.94,West,269,0.0,2.0,70,-99.99,,,-99.99,9.0,meteohub,2013-05-14 23:27:00,
2013-05-14 19:32:00,50.4,39.7,29.94,West,269,0.0,2.0,67,-99.99,,,-99.99,7.0,meteohub,2013-05-14 23:32:00,
2013-05-14 19:37:00,50.0,43.2,29.94,West,269,1.0,1.0,77,-99.99,,,-99.99,7.0,meteohub,2013-05-14 23:37:00,
2013-05-14 19:42:00,49.5,41.9,29.94,West,269,0.0,1.0,75,-99.99,,,-99.99,7.0,meteohub,2013-05-14 23:42:00,
2013-05-14 19:47:00,48.9,41.0,29.94,West,269,2.0,2.0,74,-99.99,,,-99.99,5.0,meteohub,2013-05-14 23:47:00,
2013-05-14 19:52:00,49.1,39.4,29.94,West,264,3.0,3.0,69,-99.99,,,-99.99,0.0,meteohub,2013-05-14 23:52:00,
2013-05-14 19:57:00,49.8,38.1,29.94,West,271,3.0,5.0,64,-99.99,,,-99.99,0.0,meteohub,2013-05-14 23:57:00,
2013-05-14 20:02:00,50.2,38.1,29.94,West,260,5.0,6.0,63,-99.99,,,-99.99,0.0,meteohub,2013-05-15 00:02:00,
2013-05-14 20:07:00,50.4,37.0,29.94,WSW,254,3.0,7.0,60,-99.99,,,-99.99,0.0,meteohub,2013-05-15 00:07:00,
2013-05-14 20:12:00,50.4,37.0,29.94,West,267,3.0,8.0,60,-99.99,,,-99.99,0.0,meteohub,2013-05-15 00:12:00,
2013-05-14 20:17:00,50.4,37.0,29.94,West,262,2.0,8.0,60,-99.99,,,-99.99,0.0,meteohub,2013-05-15 00:17:00,
2013-05-14 20:22:00,50.4,37.0,29.94,West,259,2.0,8.0,60,-99.99,,,-99.99,0.0,meteohub,2013-05-15 00:22:00,
2013-05-14 20:27:00,50.2,36.9,29.95,West,264,2.0,6.0,60,-99.99,,,-99.99,0.0,meteohub,2013-05-15 00:27:00,
2013-05-14 20:32:00,49.8,36.5,29.95,West,261,3.0,6.0,60,-99.99,,,-99.99,0.0,meteohub,2013-05-15 00:32:00,
2013-05-14 20:37:00,49.8,36.5,29.95,West,261,4.0,6.0,60,-99.99,,,-99.99,0.0,meteohub,2013-05-15 00:37:00,
2013-05-14 20:42:00,49.8,36.9,29.95,West,265,3.0,6.0,61,-99.99,,,-99.99,0.0,meteohub,2013-05-15 00:42:00,
2013-05-14 20:47:00,49.6,36.3,29.95,West,262,3.0,6.0,60,-99.99,,,-99.99,0.0,meteohub,2013-05-15 00:47:00,
2013-05-14 20:52:00,49.6,37.2,29.95,West,263,4.0,7.0,62,-99.99,,,-99.99,0.0,meteohub,2013-05-15 00:52:00,
2013-05-14 20:57:00,49.5,36.1,29.95,WSW,252,4.0,7.0,60,-99.99,,,-99.99,0.0,meteohub,2013-05-15 00:57:00,
2013-05-14 21:02:00,49.3,36.0,29.95,WSW,257,3.0,7.0,60,-99.99,,,-99.99,0.0,meteohub,2013-05-15 01:02:00,
2013-05-14 21:07:00,49.3,36.0,29.95,WSW,257,5.0,7.0,60,-99.99,,,-99.99,0.0,meteohub,2013-05-15 01:07:00,
2013-05-14 21:12:00,49.3,36.9,29.96,WSW,258,4.0,9.0,62,-99.99,,,-99.99,0.0,meteohub,2013-05-15 01:12:00,
2013-05-14 21:17:00,49.3,36.3,29.96,West,277,4.0,9.0,61,-99.99,,,-99.99,0.0,meteohub,2013-05-15 01:17:00,
2013-05-14 21:22:00,49.1,36.7,29.96,West,261,3.0,9.0,62,-99.99,,,-99.99,0.0,meteohub,2013-05-15 01:22:00,
2013-05-14 21:27:00,48.9,36.1,29.96,West,259,3.0,6.0,61,-99.99,,,-99.99,0.0,meteohub,2013-05-15 01:27:00,
2013-05-14 21:32:00,48.9,36.1,29.96,West,262,2.0,6.0,61,-99.99,,,-99.99,0.0,meteohub,2013-05-15 01:32:00,
2013-05-14 21:37:00,48.7,36.7,29.96,West,262,2.0,6.0,63,-99.99,,,-99.99,0.0,meteohub,2013-05-15 01:37:00,
2013-05-14 21:42:00,48.6,36.1,29.96,West,263,2.0,6.0,62,-99.99,,,-99.99,0.0,meteohub,2013-05-15 01:42:00,
2013-05-14 21:47:00,48.6,36.9,29.97,West,265,0.0,6.0,64,-99.99,,,-99.99,0.0,meteohub,2013-05-15 01:47:00,
2013-05-14 21:52:00,48.4,36.0,29.96,WSW,258,3.0,6.0,62,-99.99,,,-99.99,0.0,meteohub,2013-05-15 01:52:00,
2013-05-14 21:57:00,48.6,36.5,29.97,WSW,258,1.0,6.0,63,-99.99,,,-99.99,0.0,meteohub,2013-05-15 01:57:00,
2013-05-14 22:02:00,48.4,38.3,29.97,WSW,258,0.0,4.0,68,-99.99,,,-99.99,0.0,meteohub,2013-05-15 02:02:00,
2013-05-14 22:07:00,47.8,36.3,29.97,WSW,258,0.0,4.0,64,-99.99,,,-99.99,0.0,meteohub,2013-05-15 02:07:00,
2013-05-14 22:12:00,47.7,36.5,29.97,WSW,258,0.0,3.0,65,-99.99,,,-99.99,0.0,meteohub,2013-05-15 02:12:00,
2013-05-14 22:17:00,47.5,36.3,29.97,WSW,258,0.0,3.0,65,-99.99,,,-99.99,0.0,meteohub,2013-05-15 02:17:00,
2013-05-14 22:22:00,47.5,36.3,29.97,WSW,258,0.0,3.0,65,-99.99,,,-99.99,0.0,meteohub,2013-05-15 02:22:00,
2013-05-14 22:27:00,47.3,36.5,29.97,WSW,258,0.0,1.0,66,-99.99,,,-99.99,0.0,meteohub,2013-05-15 02:27:00,
2013-05-14 22:32:00,46.9,39.0,29.97,WSW,258,0.0,1.0,74,-99.99,,,-99.99,0.0,meteohub,2013-05-15 02:32:00,
2013-05-14 22:37:00,46.2,39.0,29.96,WSW,258,0.0,1.0,76,-99.99,,,-99.99,0.0,meteohub,2013-05-15 02:37:00,
2013-05-14 22:42:00,45.5,38.3,29.96,WSW,258,0.0,1.0,76,-99.99,,,-99.99,0.0,meteohub,2013-05-15 02:42:00,
2013-05-14 22:47:00,45.1,37.4,29.96,WSW,258,0.0,1.0,74,-99.99,,,-99.99,0.0,meteohub,2013-05-15 02:47:00,
2013-05-14 22:52:00,45.0,37.9,29.97,WSW,258,0.0,1.0,76,-99.99,,,-99.99,0.0,meteohub,2013-05-15 02:52:00,
2013-05-14 22:57:00,44.8,37.4,29.96,WSW,258,0.0,1.0,75,-99.99,,,-99.99,0.0,meteohub,2013-05-15 02:57:00,
2013-05-14 23:02:00,44.8,37.0,29.96,WSW,258,0.0,1.0,74,-99.99,,,-99.99,0.0,meteohub,2013-05-15 03:02:00,
2013-05-14 23:07:00,44.6,38.5,29.96,WSW,258,0.0,0.0,79,-99.99,,,-99.99,0.0,meteohub,2013-05-15 03:07:00,
2013-05-14 23:12:00,44.2,38.1,29.96,WSW,258,0.0,1.0,79,-99.99,,,-99.99,0.0,meteohub,2013-05-15 03:12:00,
2013-05-14 23:17:00,44.2,36.9,29.96,WSW,258,0.0,1.0,75,-99.99,,,-99.99,0.0,meteohub,2013-05-15 03:17:00,
2013-05-14 23:22:00,44.8,36.7,29.96,WSW,258,0.0,1.0,73,-99.99,,,-99.99,0.0,meteohub,2013-05-15 03:22:00,
2013-05-14 23:27:00,45.0,36.9,29.96,WSW,258,0.0,1.0,73,-99.99,,,-99.99,0.0,meteohub,2013-05-15 03:27:00,
2013-05-14 23:32:00,44.8,36.7,29.96,WSW,258,0.0,1.0,73,-99.99,,,-99.99,0.0,meteohub,2013-05-15 03:32:00,
2013-05-14 23:37:00,44.4,36.3,29.96,WSW,258,0.0,1.0,73,-99.99,,,-99.99,0.0,meteohub,2013-05-15 03:37:00,
2013-05-14 23:42:00,44.2,37.8,29.97,WSW,258,0.0,0.0,78,-99.99,,,-99.99,0.0,meteohub,2013-05-15 03:42:00,
2013-05-14 23:47:00,44.1,38.3,29.96,WSW,258,0.0,0.0,80,-99.99,,,-99.99,0.0,meteohub,2013-05-15 03:47:00,
2013-05-14 23:52:00,43.5,37.8,29.97,WSW,258,0.0,0.0,80,-99.99,,,-99.99,0.0,meteohub,2013-05-15 03:52:00,
2013-05-14 23:57:00,43.2,37.8,29.97,WSW,258,0.0,0.0,81,-99.99,,,-99.99,0.0,meteohub,2013-05-15 03:57:00,